Flag for Poland

Past Weather in Kraków, Poland — Yesterday and Last 2 Weeks

Now
45 °F

Fog.


Feels Like: 45 °F
Forecast: 80 / 46 °F
Wind: 2 mph from Northeast

Location: Krakow Airport
Current Time: Sep 21, 2020 at 6:22:28 am
Latest Report: Sep 21, 2020 at 6:00 am
Visibility: N/A
Pressure30.09 "Hg
Humidity: 93%
Dew Point: 43 °F
Location of KrakówLocation

Past Weather in Kraków — Graph

°F

Kraków Temperature Yesterday

Maximum temperature yesterday: 68 °F (at 5:00 pm)
Minimum temperature yesterday: 45 °F (at 3:30 am)
Average temperature yesterday: 56 °F

High & Low Weather Summary for the Past Weeks

 TemperatureHumidityPressure
High82 °F (Sep 14, 3:00 pm)100% (Sep 6, 5:00 am)30.45 "Hg (Sep 6, 5:00 am)
Low39 °F (Sep 19, 5:00 am)40% (Sep 19, 1:00 pm)29.98 "Hg (Sep 6, 7:00 am)
Average60 °F78%30.20 "Hg
* Reported Sep 6 5:00 am — Sep 21 5:30 am, Kraków. Weather by CustomWeather, © 2020

Note: Actual official high and low records may vary slightly from our data, if they occured in-between our weather recording intervals... More about our weather records

Kraków Weather History for the Previous 24 Hours

Scroll right to see more
 ConditionsComfort  
Time TempWeatherWind HumidityBarometerVisibility
5:30 am
Mon, Sep 21
45 °FFog.2 mph100%30.09 "HgN/A
2:00 am48 °FClear.2 mph87%30.12 "Hg10 mi
1:30 am52 °FClear.2 mph88%30.12 "Hg10 mi
1:00 am52 °FClear.2 mph88%30.09 "Hg10 mi
12:30 am52 °FClear.2 mph82%30.09 "Hg10 mi
12:00 am54 °FClear.5 mph82%30.09 "Hg10 mi
11:30 pm
Sun, Sep 20
54 °FClear.6 mph82%30.09 "Hg10 mi
11:00 pm54 °FClear.7 mph82%30.09 "Hg10 mi
10:30 pm55 °FClear.7 mph77%30.09 "Hg10 mi
10:00 pm55 °FClear.7 mph72%30.09 "Hg10 mi
9:30 pm57 °FClear.8 mph72%30.09 "Hg10 mi
9:00 pm57 °FClear.8 mph77%30.09 "Hg10 mi
8:30 pm59 °FClear.8 mph68%30.09 "Hg10 mi
8:00 pm59 °FClear.9 mph68%30.09 "Hg10 mi
7:30 pm61 °FClear.10 mph68%30.09 "Hg10 mi
7:00 pm63 °FClear.5 mph64%30.09 "Hg10 mi
6:30 pm64 °FSunny.8 mph60%30.09 "Hg10 mi
6:00 pm66 °FSunny.9 mph56%30.09 "Hg10 mi
5:30 pm68 °FSunny.9 mph53%30.09 "Hg10 mi
5:00 pm68 °FSunny.7 mph53%30.09 "Hg10 mi
4:30 pm66 °FPassing clouds.5 mph60%30.09 "HgN/A
4:00 pm66 °FSunny.7 mph60%30.09 "Hg10 mi
3:30 pm66 °FPassing clouds.9 mph56%30.09 "HgN/A
3:00 pm66 °FPassing clouds.10 mph52%30.09 "HgN/A
2:30 pm66 °FPassing clouds.7 mph56%30.12 "HgN/A
2:00 pm64 °FSunny.9 mph56%30.12 "Hg10 mi
1:30 pm66 °FPassing clouds.9 mph60%30.12 "HgN/A
1:00 pm64 °FSunny.9 mph60%30.12 "Hg10 mi
12:30 pm63 °FSunny.9 mph59%30.12 "Hg10 mi
12:00 pm63 °FPassing clouds.9 mph59%30.15 "HgN/A
11:30 am61 °FPassing clouds.6 mph63%30.15 "HgN/A
11:00 am59 °FSunny.6 mph68%30.15 "Hg10 mi
10:30 am59 °FPassing clouds.5 mph68%30.15 "HgN/A
10:00 am57 °FPassing clouds.7 mph72%30.15 "HgN/A
9:30 am54 °FSunny.6 mph82%30.15 "Hg10 mi
9:00 am52 °FSunny.6 mph88%30.15 "Hg10 mi
8:30 am50 °FSunny.3 mph88%30.15 "Hg10 mi
8:00 am48 °FSunny.2 mph87%30.15 "Hg10 mi
7:30 am46 °FSunny.3 mph93%30.15 "Hg10 mi
7:00 am46 °FSunny.5 mph87%30.15 "Hg10 mi
6:30 am46 °FSunny.6 mph87%30.15 "Hg10 mi
6:00 am45 °FClear.6 mph93%30.15 "Hg10 mi
Weather by CustomWeather, © 2020

See weather overview